Weather History for Carlsbad, NM

Change the Weather History Date:

Sunday, January 20, 2013

  Actual Average Record
Temperature  
Mean Temperature 47 °F -  
Max Temperature 66 °F 55 °F 80 °F (1986)
Min Temperature 28 °F 29 °F -3 °F (1963)
Degree Days  
Heating Degree Days 18    
Moisture  
Dew Point 17 °F    
Average Humidity 38    
Maximum Humidity 61    
Minimum Humidity 14    
Precipitation  
Precipitation 0.00 in - - ()
Sea Level Pressure  
Sea Level Pressure 30.13 in    
Wind  
Wind Speed 8 mph (West)    
Max Wind Speed 12 mph    
Max Gust Speed -    
Visibility 10 miles    
Events      
Averages and records for this station are not official NWS values.
T = Trace of Precipitation, MM = Missing Value Source: NWS Daily Summary

Daily Weather History Graph

Daily Weather History Graph

Search for Another Location

Airport:

Trip Planner

Search our weather history database for the weather conditions in past years. The results will help you decide how hot, cold, wet, or windy it might be!

Date:

Astronomy

Jan. 20, 2013 Rise Set
Actual Time 6:57 AM MST 5:19 PM MST
Civil Twilight 6:30 AM MST 5:45 PM MST
Nautical Twilight 6:00 AM MST 6:15 PM MST
Astronomical Twilight 5:31 AM MST 6:45 PM MST
Moon 12:21 PM MST (1/20) 1:33 AM MST (1/20)
Length of Visible Light 11h 15m
Length of Day
10h 22m
Waxing Gibbous, 67% of the Moon is Illuminated
Jan 20
Waxing Gibbous
Jan 26
Full
Feb 3
Last Quarter
Feb 10
New
Feb 17
First Quarter

Hourly Weather History & Observations

Time (MST) Temp. Windchill Dew Point Humidity Pressure Visibility Wind Dir Wind Speed Gust Speed Precip Events Conditions
12:53 AM 36.0 °F 28.0 °F 17.1 °F 46% 30.20 in 10.0 mi West 11.5 mph - N/A   Clear
1:53 AM 33.1 °F 26.1 °F 17.1 °F 52% 30.20 in 10.0 mi West 8.1 mph - N/A   Clear
2:53 AM 32.0 °F 26.4 °F 17.1 °F 54% 30.20 in 10.0 mi West 5.8 mph - N/A   Clear
3:53 AM 30.0 °F 25.2 °F 18.0 °F 61% 30.19 in 10.0 mi NNW 4.6 mph - N/A   Clear
4:53 AM 32.0 °F 27.5 °F 17.1 °F 54% 30.19 in 10.0 mi North 4.6 mph - N/A   Clear
5:53 AM 30.0 °F 22.4 °F 17.1 °F 59% 30.22 in 10.0 mi North 8.1 mph - N/A   Clear
6:53 AM 28.0 °F 18.6 °F 16.0 °F 61% 30.24 in 10.0 mi NW 10.4 mph - N/A   Clear
7:53 AM 35.1 °F 27.9 °F 16.0 °F 46% 30.22 in 10.0 mi WNW 9.2 mph - N/A   Clear
8:53 AM 42.1 °F 39.2 °F 15.1 °F 34% 30.22 in 10.0 mi WNW 4.6 mph - N/A   Clear
9:53 AM 48.0 °F - 14.0 °F 26% 30.22 in 10.0 mi North 5.8 mph - N/A   Clear
10:53 AM 53.1 °F - 12.9 °F 20% 30.19 in 10.0 mi NNE 5.8 mph - N/A   Clear
11:53 AM 55.9 °F - 12.9 °F 18% 30.13 in 10.0 mi Calm Calm - N/A   Clear
12:53 PM 60.1 °F - 14.0 °F 16% 30.08 in 10.0 mi SSE 4.6 mph - N/A   Clear
1:53 PM 64.0 °F - 14.0 °F 14% 30.04 in 10.0 mi South 10.4 mph - N/A   Clear
2:53 PM 66.0 °F - 16.0 °F 15% 30.02 in 10.0 mi SSE 10.4 mph - N/A   Clear
3:53 PM 64.9 °F - 17.1 °F 16% 30.01 in 10.0 mi SSE 10.4 mph - N/A   Clear
4:53 PM 61.0 °F - 19.0 °F 20% 30.01 in 10.0 mi SE 5.8 mph - N/A   Clear
5:53 PM 51.1 °F - 19.9 °F 29% 30.04 in 10.0 mi South 5.8 mph - N/A   Clear
6:53 PM 45.0 °F 42.6 °F 21.0 °F 39% 30.08 in 10.0 mi WSW 4.6 mph - N/A   Clear
7:53 PM 41.0 °F 35.8 °F 21.9 °F 47% 30.09 in 10.0 mi SSW 8.1 mph - N/A   Clear
8:53 PM 39.9 °F 35.8 °F 21.9 °F 49% 30.09 in 10.0 mi WNW 5.8 mph - N/A   Clear
9:53 PM 36.0 °F 31.1 °F 21.9 °F 57% 30.10 in 10.0 mi WNW 5.8 mph - N/A   Clear
10:53 PM 37.9 °F 32.1 °F 19.9 °F 48% 30.11 in 10.0 mi WNW 8.1 mph - N/A   Clear
11:53 PM 42.1 °F 36.1 °F 17.1 °F 37% 30.13 in 10.0 mi WNW 10.4 mph - N/A   Clear